Content
SEND FEEDBACK

Daily
Averages
Monthly
Summary
United States of America

SAN RAFAEL, CALIFORNIA


Home > North America > United States > California
Elevation: 30 feet     Latitude: 37 58N     Longitude: 122 32W

WEATHER
 
SELECT A DAY
Number of Records: 164,583;   Date Range: 9/27/07 - 7/21/14
 
SHARE

PRINT THIS DATA

[ ← Previous Day ]
WEATHER ALMANAC - MARCH 22, 2013
[ Next Day → ]
[ °C ]   °F
Weather ElementAverageHighLow
Temperature53.5 °F66.2 °F (2:35 pm)42.8 °F (7:55 am)
Dewpoint36.1 °F41 °F (6:35 pm)26.6 °F (1:15 pm)
Humidity55.2 %81 % (8:55 pm)26 % (1:15 pm)
Barometer30.09 in30.14 in (9:55 am)30.05 in (4:55 pm)
Wind Speed7.5 mph17.3 mph (4:35 am)
Wind Gust20.7 mph (3:55 am)
Weather ElementAverage
Visibility10 mi
Wind DirectionWSW (244.6 °)

Weather ElementTotal
Precipitation---
Heating Degree Days10.5 (Base 65)
Growing Degree Days4.5 (Base 50)
Averaged from 70 records on March 22, 2013
WEATHER CONDITIONS BREAKOUT
WIND DIRECTION BREAKOUT
WEATHER BY HOUR - MARCH 22, 2013
[ °C ]   °F
Local TimeTemperatureDewpointHumidityBarometerVisibilityWind DirectionWind SpeedGust SpeedPrecipitationEventsConditions
12:35 AM50.0 °F39.2 °F66 %30.07 in10.0 miWest (280°)5.8 mphClear
12:55 AM50.0 °F39.2 °F66 %30.07 in10.0 miNW (320°)11.5 mphClear
1:15 AM48.2 °F39.2 °F71 %30.07 in10.0 miNW (320°)15.0 mph19.6 mphClear
1:35 AM50.0 °F39.2 °F66 %30.07 in10.0 miNNW (340°)13.8 mphClear
1:55 AM50.0 °F39.2 °F66 %30.07 in10.0 miNNW (330°)12.7 mphClear
2:15 AM48.2 °F39.2 °F71 %30.08 in10.0 miNNW (340°)10.4 mphClear
2:35 AM48.2 °F39.2 °F71 %30.08 in10.0 miNorth (350°)11.5 mphClear
2:55 AM48.2 °F39.2 °F71 %30.08 in10.0 miNorth (350°)12.7 mphClear
3:15 AM46.4 °F39.2 °F76 %30.07 in10.0 miNorth (350°)11.5 mphClear
3:35 AM46.4 °F39.2 °F76 %30.08 in10.0 miNNW (340°)12.7 mph16.1 mphClear
3:55 AM46.4 °F37.4 °F71 %30.08 in10.0 miNorth (350°)15.0 mph20.7 mphClear
4:15 AM48.2 °F37.4 °F66 %30.07 in10.0 miNNW (340°)12.7 mph18.4 mphClear
4:35 AM48.2 °F37.4 °F66 %30.07 in10.0 miNNW (330°)17.3 mph20.7 mphClear
4:55 AM46.4 °F37.4 °F71 %30.08 in10.0 miNorth (350°)13.8 mph20.7 mphClear
5:15 AM46.4 °F37.4 °F71 %30.07 in10.0 miNorth (350°)10.4 mphClear
5:35 AM44.6 °F37.4 °F76 %30.07 in10.0 miNNW (330°)9.2 mphClear
5:55 AM44.6 °F37.4 °F76 %30.08 in10.0 miNW (310°)8.1 mphClear
6:15 AM44.6 °F35.6 °F71 %30.08 in10.0 miNNW (330°)11.5 mph18.4 mphClear
6:35 AM44.6 °F35.6 °F71 %30.09 in10.0 miNNW (340°)11.5 mphClear
6:55 AM46.4 °F33.8 °F62 %30.09 in10.0 miNNW (340°)11.5 mphClear
7:15 AM44.6 °F33.8 °F66 %30.10 in10.0 miNNW (330°)12.7 mphClear
7:35 AM44.6 °F32.0 °F61 %30.10 in10.0 miNW (310°)5.8 mphClear
7:55 AM42.8 °F35.6 °F76 %30.11 in10.0 miCalmClear
8:15 AM44.6 °F35.6 °F71 %30.11 in10.0 miSouth (170°)3.5 mphClear
8:35 AM46.4 °F33.8 °F62 %30.12 in10.0 miCalmClear
8:55 AM48.2 °F32.0 °F54 %30.12 in10.0 miNW (310°)4.6 mphClear
9:15 AM50.0 °F33.8 °F54 %30.12 in10.0 miCalmClear
9:35 AM51.8 °F33.8 °F50 %30.13 in10.0 miNorth (350°)12.7 mphClear
9:55 AM51.8 °F33.8 °F50 %30.14 in10.0 miNorth (350°)11.5 mphClear
10:15 AM53.6 °F35.6 °F51 %30.14 in10.0 miNorth (360°)12.7 mphClear
10:35 AM53.6 °F35.6 °F51 %30.14 in10.0 miNorth (350°)13.8 mphClear
10:55 AM55.4 °F35.6 °F47 %30.14 in10.0 miNorth (350°)9.2 mphClear
11:15 AM57.2 °F35.6 °F44 %30.14 in10.0 miNorth (350°)10.4 mphClear
11:35 AM59.0 °F35.6 °F42 %30.13 in10.0 miNorth (10°)8.1 mphClear
11:55 AM59.0 °F30.2 °F34 %30.13 in10.0 miNNE (20°)5.8 mphClear
12:15 PM60.8 °F30.2 °F31 %30.13 in10.0 miNNE (20°)6.9 mphClear
12:35 PM60.8 °F32.0 °F34 %30.12 in10.0 miNorth (360°)5.8 mphClear
12:55 PM62.6 °F32.0 °F32 %30.12 in10.0 miNorth (350°)9.2 mphClear
1:15 PM62.6 °F26.6 °F26 %30.11 in10.0 miNW (320°)4.6 mphClear
1:35 PM64.4 °F30.2 °F28 %30.11 in10.0 miNW (320°)4.6 mphClear
1:55 PM64.4 °F32.0 °F30 %30.10 in10.0 miNNW (330°)8.1 mphClear
2:15 PM64.4 °F32.0 °F30 %30.09 in10.0 miNNW (330°)6.9 mphClear
2:35 PM66.2 °F32.0 °F28 %30.09 in10.0 miNNW (330°)6.9 mphClear
2:55 PM66.2 °F35.6 °F32 %30.08 in10.0 miNorth (360°)6.9 mphClear
3:15 PM66.2 °F35.6 °F32 %30.07 in10.0 miNW (310°)9.2 mphClear
3:35 PM66.2 °F35.6 °F32 %30.07 in10.0 miNW (320°)10.4 mphClear
3:55 PM64.4 °F37.4 °F37 %30.06 in10.0 miNW (310°)8.1 mphClear
4:15 PM66.2 °F33.8 °F30 %30.06 in10.0 miNW (310°)6.9 mphClear
4:35 PM64.4 °F33.8 °F32 %30.06 in10.0 miWNW (290°)6.9 mphClear
4:55 PM64.4 °F33.8 °F32 %30.05 in10.0 miWNW (290°)6.9 mphClear
5:15 PM64.4 °F32.0 °F30 %30.05 in10.0 miWNW (300°)6.9 mphClear
5:35 PM64.4 °F32.0 °F30 %30.05 in10.0 miWNW (290°)9.2 mphClear
5:55 PM64.4 °F32.0 °F30 %30.05 in10.0 miWNW (300°)8.1 mphClear
6:15 PM62.6 °F33.8 °F34 %30.05 in10.0 miENE (60°)3.5 mphClear
6:35 PM60.8 °F41.0 °F48 %30.05 in10.0 miNE (50°)4.6 mphClear
6:55 PM59.0 °F39.2 °F48 %30.06 in10.0 miCalmClear
7:15 PM55.4 °F41.0 °F58 %30.05 in10.0 miNNW (330°)3.5 mphClear
7:35 PM53.6 °F39.2 °F58 %30.06 in10.0 miCalmClear
7:55 PM53.6 °F39.2 °F58 %30.06 in10.0 miCalmClear
8:15 PM53.6 °F39.2 °F58 %30.07 in10.0 miCalmClear
8:35 PM50.0 °F41.0 °F71 %30.07 in10.0 miENE (60°)3.5 mphClear
8:55 PM46.4 °F41.0 °F81 %30.08 in10.0 miCalmClear
9:35 PM48.2 °F41.0 °F76 %30.09 in10.0 miCalmClear
9:55 PM46.4 °F41.0 °F81 %30.09 in10.0 miNNE (20°)4.6 mphClear
10:15 PM46.4 °F39.2 °F76 %30.09 in10.0 miCalmClear
10:35 PM46.4 °F41.0 °F81 %30.09 in10.0 miWest (260°)4.6 mphClear
10:55 PM48.2 °F39.2 °F71 %30.10 in10.0 miNW (320°)3.5 mphClear
11:15 PM50.0 °F37.4 °F62 %30.10 in10.0 miNW (320°)12.7 mphClear
11:35 PM50.0 °F37.4 °F62 %30.10 in10.0 miNW (310°)4.6 mphClear
11:55 PM48.2 °F39.2 °F71 %30.10 in10.0 miCalmClear
Hourly data recorded from KDVO, located miles away from San Rafael, California







STORIES FROM OUR PARTNERS